Weather History for KGNT - January, 2013

Change the Weather History Date:

Wednesday, January 2, 2013

  Actual Average Record
Temperature  
Mean Temperature 16 °F -  
Max Temperature 34 °F 41 °F 62 °F (1981)
Min Temperature -3 °F 12 °F -13 °F (2011)
Degree Days  
Heating Degree Days 50    
Moisture  
Dew Point 5 °F    
Average Humidity 69    
Maximum Humidity 86    
Minimum Humidity 34    
Precipitation  
Precipitation 0.00 in - - ()
Sea Level Pressure  
Sea Level Pressure 30.18 in    
Wind  
Wind Speed 6 mph (NW)    
Max Wind Speed 15 mph    
Max Gust Speed -    
Visibility 10 miles    
Events      
Averages and records for this station are not official NWS values.
T = Trace of Precipitation, MM = Missing Value Source: NWS Daily Summary

Daily Weather History Graph

Daily Weather History Graph

Search for Another Location

Airport or City:

Trip Planner

Search our weather history database for the weather conditions in past years. The results will help you decide how hot, cold, wet, or windy it might be!

Date:

Astronomy

Jan. 02, 2013 Rise Set
Actual Time 7:20 AM MST 5:11 PM MST
Civil Twilight 6:52 AM MST 5:39 PM MST
Nautical Twilight 6:20 AM MST 6:11 PM MST
Astronomical Twilight 5:49 AM MST 6:42 PM MST
Moon 10:33 PM MST (1/2) 10:15 AM MST (1/2)
Length of Visible Light 10h 47m
Length of Day
9h 51m
Waning Gibbous, 74% of the Moon is Illuminated
Jan 2
Waning Gibbous
Jan 4
Last Quarter
Jan 11
New
Jan 18
First Quarter
Jan 26
Full

Hourly Weather History & Observations

Time (MST) Temp. Windchill Dew Point Humidity Pressure Visibility Wind Dir Wind Speed Gust Speed Precip Events Conditions
12:15 AM 6.8 °F -6.9 °F 3.2 °F 85% 30.23 in 10.0 mi NNW 9.2 mph - N/A   Clear
12:35 AM 5.5 °F -7.4 °F 2.1 °F 86% 30.23 in 10.0 mi North 8.1 mph - N/A   Clear
12:55 AM 4.6 °F -2.5 °F 1.2 °F 86% 30.24 in 10.0 mi WNW 3.5 mph - N/A   Clear
1:15 AM 4.3 °F -4.9 °F 1.0 °F 86% 30.24 in 10.0 mi NW 4.6 mph - N/A   Clear
1:35 AM 4.6 °F -6.0 °F 1.4 °F 86% 30.24 in 10.0 mi NW 5.8 mph - N/A   Clear
1:55 AM 3.7 °F -8.4 °F 0.5 °F 86% 30.23 in 10.0 mi WNW 6.9 mph - N/A   Clear
2:15 AM 3.2 °F -10.3 °F -0.4 °F 85% 30.22 in 10.0 mi NW 8.1 mph - N/A   Clear
2:35 AM 3.0 °F -9.3 °F -0.2 °F 86% 30.22 in 10.0 mi NNW 6.9 mph - N/A   Clear
2:55 AM 4.6 °F -7.4 °F 1.0 °F 85% 30.24 in 10.0 mi NNW 6.9 mph - N/A   Clear
3:15 AM 1.9 °F -9.2 °F -1.7 °F 85% 30.23 in 10.0 mi NW 5.8 mph - N/A   Clear
3:35 AM 1.2 °F -8.5 °F -2.4 °F 85% 30.22 in 10.0 mi NNW 4.6 mph - N/A   Clear
3:55 AM 1.4 °F -11.3 °F -2.2 °F 85% 30.22 in 10.0 mi NW 6.9 mph - N/A   Clear
4:15 AM 1.4 °F -11.3 °F -2.2 °F 85% 30.22 in 10.0 mi WNW 6.9 mph - N/A   Clear
4:35 AM 1.2 °F -10.1 °F -2.4 °F 85% 30.21 in 10.0 mi WNW 5.8 mph - N/A   Clear
5:15 AM 0.5 °F -7.3 °F -3.1 °F 85% 30.20 in 10.0 mi WNW 3.5 mph - N/A   Clear
5:35 AM 0.3 °F -11.2 °F -3.3 °F 85% 30.20 in 10.0 mi WNW 5.8 mph - N/A   Clear
5:55 AM 0.1 °F -11.4 °F -3.5 °F 85% 30.21 in 10.0 mi NW 5.8 mph - N/A   Clear
6:15 AM -0.8 °F -12.5 °F -4.4 °F 85% 30.21 in 10.0 mi NW 5.8 mph - N/A   Clear
6:35 AM -1.8 °F -9.9 °F -5.6 °F 84% 30.21 in 10.0 mi NNW 3.5 mph - N/A   Clear
6:55 AM -1.8 °F - -5.4 °F 85% 30.21 in 10.0 mi Calm Calm - N/A   Clear
7:15 AM -3.3 °F - -6.9 °F 85% 30.21 in 10.0 mi Calm Calm - N/A   Clear
7:35 AM -2.6 °F -12.9 °F -6.0 °F 85% 30.21 in 10.0 mi NW 4.6 mph - N/A   Clear
7:55 AM 3.2 °F -7.8 °F -0.4 °F 85% 30.21 in 10.0 mi NW 5.8 mph - N/A   Clear
8:15 AM 3.6 °F -5.7 °F -0.8 °F 82% 30.21 in 10.0 mi NW 4.6 mph - N/A   Clear
8:35 AM 5.9 °F -4.5 °F 1.8 °F 83% 30.22 in 10.0 mi North 5.8 mph - N/A   Clear
8:55 AM 8.6 °F -2.6 °F 4.6 °F 84% 30.22 in 10.0 mi North 6.9 mph - N/A   Clear
9:15 AM 11.1 °F 0.4 °F 6.8 °F 83% 30.22 in 10.0 mi North 6.9 mph - N/A   Clear
9:35 AM 13.8 °F 3.7 °F 9.0 °F 81% 30.22 in 10.0 mi North 6.9 mph - N/A   Clear
9:55 AM 16.9 °F 9.8 °F 11.1 °F 78% 30.22 in 10.0 mi North 4.6 mph - N/A   Clear
10:15 AM 19.6 °F 14.5 °F 12.0 °F 72% 30.22 in 10.0 mi North 3.5 mph - N/A   Clear
10:35 AM 22.1 °F - 12.4 °F 66% 30.22 in 10.0 mi Calm Calm - N/A   Clear
10:55 AM 26.2 °F 17.8 °F 10.0 °F 50% 30.21 in 10.0 mi NW 8.1 mph - N/A   Clear
11:15 AM 27.5 °F 18.6 °F 10.0 °F 48% 30.20 in 10.0 mi NW 9.2 mph - N/A   Clear
11:35 AM 28.8 °F 20.2 °F 9.9 °F 45% 30.20 in 10.0 mi NW 9.2 mph - N/A   Clear
11:55 AM 30.0 °F 22.4 °F 9.5 °F 42% 30.18 in 10.0 mi NW 8.1 mph - N/A   Clear
12:15 PM 30.9 °F 22.8 °F 9.7 °F 41% 30.18 in 10.0 mi NW 9.2 mph - N/A   Clear
12:35 PM 31.8 °F 23.9 °F 9.1 °F 39% 30.16 in 10.0 mi NNW 9.2 mph - N/A   Clear
12:55 PM 32.2 °F 23.8 °F 9.0 °F 38% 30.15 in 10.0 mi NW 10.4 mph - N/A   Clear
1:15 PM 33.1 °F 25.5 °F 9.1 °F 37% 30.13 in 10.0 mi NW 9.2 mph - N/A   Clear
1:35 PM 33.1 °F 25.5 °F 8.4 °F 36% 30.12 in 10.0 mi NNW 9.2 mph - N/A   Clear
1:55 PM 33.8 °F 26.4 °F 8.6 °F 35% 30.12 in 10.0 mi North 9.2 mph - N/A   Clear
2:15 PM 33.8 °F 28.6 °F 9.0 °F 36% 30.12 in 10.0 mi North 5.8 mph - N/A   Clear
2:35 PM 34.5 °F 27.9 °F 9.0 °F 35% 30.12 in 10.0 mi NNW 8.1 mph - N/A   Clear
2:55 PM 34.5 °F 27.9 °F 8.8 °F 34% 30.12 in 10.0 mi NNW 8.1 mph - N/A   Clear
3:15 PM 34.3 °F 26.5 °F 9.0 °F 35% 30.12 in 10.0 mi NW 10.4 mph - N/A   Clear
3:35 PM 33.8 °F 26.4 °F 8.6 °F 35% 30.12 in 10.0 mi NW 9.2 mph - N/A   Clear
3:55 PM 33.3 °F 24.6 °F 8.8 °F 36% 30.12 in 10.0 mi NNW 11.5 mph - N/A   Clear
4:15 PM 32.4 °F 22.1 °F 8.8 °F 37% 30.12 in 10.0 mi NNW 15.0 mph - N/A   Clear
4:35 PM 31.6 °F 23.1 °F 10.4 °F 41% 30.12 in 10.0 mi NNW 10.4 mph - N/A   Clear
4:55 PM 30.0 °F 20.5 °F 10.4 °F 44% 30.12 in 10.0 mi NNW 11.5 mph - N/A   Clear
5:15 PM 27.0 °F 18.7 °F 10.4 °F 50% 30.12 in 10.0 mi NW 8.1 mph - N/A   Clear
5:35 PM 23.9 °F 15.0 °F 10.0 °F 56% 30.13 in 10.0 mi WNW 8.1 mph - N/A   Clear
5:55 PM 22.1 °F 17.4 °F 9.9 °F 59% 30.13 in 10.0 mi NNW 3.5 mph - N/A   Clear
6:15 PM 19.0 °F 12.3 °F 8.2 °F 63% 30.14 in 10.0 mi NW 4.6 mph - N/A   Clear
6:35 PM 18.9 °F - 8.6 °F 64% 30.14 in 10.0 mi Calm Calm - N/A   Clear
6:55 PM 17.6 °F - 8.8 °F 68% 30.15 in 10.0 mi Calm Calm - N/A   Clear
7:15 PM 16.5 °F - 8.8 °F 72% 30.15 in 10.0 mi Calm Calm - N/A   Clear
7:35 PM 13.6 °F - 7.3 °F 76% 30.16 in 10.0 mi Calm Calm - N/A   Clear
7:55 PM 14.2 °F 8.4 °F 6.4 °F 71% 30.16 in 10.0 mi West 3.5 mph - N/A   Clear
8:15 PM 12.4 °F 4.6 °F 6.3 °F 76% 30.17 in 10.0 mi NW 4.6 mph - N/A   Clear
8:35 PM 11.7 °F 2.3 °F 5.9 °F 78% 30.18 in 10.0 mi NW 5.8 mph - N/A   Clear
8:55 PM 10.9 °F -0.8 °F 5.9 °F 80% 30.18 in 10.0 mi NNW 8.1 mph - N/A   Clear
9:15 PM 11.3 °F 1.9 °F 6.3 °F 80% 30.18 in 10.0 mi NW 5.8 mph - N/A   Clear
9:35 PM 10.2 °F 3.8 °F 5.9 °F 83% 30.20 in 10.0 mi WNW 3.5 mph - N/A   Clear
9:55 PM 11.5 °F 2.1 °F 6.1 °F 79% 30.20 in 10.0 mi NNW 5.8 mph - N/A   Clear
10:15 PM 9.5 °F -0.3 °F 5.4 °F 83% 30.20 in 10.0 mi NW 5.8 mph - N/A   Clear
10:35 PM 9.7 °F -1.3 °F 5.2 °F 82% 30.20 in 10.0 mi NW 6.9 mph - N/A   Clear
10:55 PM 8.4 °F -2.8 °F 4.1 °F 83% 30.20 in 10.0 mi NW 6.9 mph - N/A   Clear
11:15 PM 7.7 °F -3.7 °F 3.6 °F 83% 30.20 in 10.0 mi NW 6.9 mph - N/A   Clear
11:35 PM 7.7 °F -4.8 °F 3.2 °F 82% 30.20 in 10.0 mi NW 8.1 mph - N/A   Clear
11:55 PM 5.9 °F -7.0 °F 1.8 °F 83% 30.20 in 10.0 mi NW 8.1 mph - N/A   Clear